Tracking 19847 objects as of 16-Sep-2019
HD Live streaming from Space Station
objects crossing your sky now

TITAN 3C TRANSTAGE DEB

Track TITAN 3C TRANSTAGE DEB now!
10-day predictions


NORAD ID: 1859
Int'l Code: 1965-082ES
Perigee: 694.8 km
Apogee: 793.9 km
Inclination: 32.1 °
Period: 99.6 minutes
Semi major axis: 7115 km
RCS: 0.1777 m2 (medium)
Launch date: October 15, 1965
Source: United States (US)
Launch site: AIR FORCE EASTERN TEST RANGE (AFETR)

Note: This is SATELLITE DEBRIS
aabbcc
Your satellite tracking list
Your tracking list is empty




NASA's NSSDC Master Catalog

Two Line Element Set (TLE):
1  1859U 65082ES  19258.71329409  .00000087  00000-0  13377-4 0  9994
2  1859  32.1282   7.6508 0069659 238.8833 120.4959 14.46463466830037
Source of the keplerian elements: AFSPC